LFRGLFQQ

Guest
Details From LFRG - Deauville Saint Gatien
To LFQQ - Lille Lesquin
Flight Number -
Tags generated
Created
Modified
Stats Distance 135 nm / 249 km
Max Altitude 11,600 ft / 3,536 m
Waypoints 3
Social Downloads 1
Likes 0
Share VATSIM

Download

Looking for another format? Having issues loading an existing format? Contact us
Advertisement - Login to hide

Notes

Basic altitude profile: - Ascent Rate: 1500ft/min - Ascent Speed: 150kts - Cruise Altitude: 20000ft - Cruise Speed: 250kts - Descent Rate: 1500ft/min - Descent Speed: 150kts Options: - Use NATs: yes - Use PACOTS: yes - Use low airways: yes - Use high airways: no

Route

LFRG ABB LFQQ

ID Type Via Altitude (ft/m) Position (lat/lon) Dist (leg/tot) Name
O LFRG APT - 0 / 0 49.36530 / 0.15432 - / 0 nm Deauville Saint Gatien
ABB VOR - 11,600 / 3,536 50.13514 / 1.85469 80 / 80 nm ABBEVILLE VOR-DME
O LFQQ APT - 0 / 0 50.56633 / 3.09538 54 / 134 nm Lille Lesquin

Altitude Profile

Advertisement - Login to hide

LFRG

Details ICAO LFRG (DOL)
Name Deauville Saint Gatien
Region France
Timezone Europe/Paris (UTC+1.0)
Stats Elevation 479 ft / 146 m (AMSL)
Location 49.365300° 0.154325°
Runways 1
Magnetic Variation 0.035° E

METAR

LFRG 250500Z AUTO 34008KT 300V020 CAVOK 07/04 Q1029

Decode

TAF

Not found

Departure Runways

ID Width Length Bearing (true/mag) Surface Threshold Overrun Markings Lighting
12 148 ft / 45 m 8,344 ft / 2,543 m 117.22° / 117.19° ASPHALT 1,476 ft / 450 m 0 ft / 0 m APP EDGE THRESHOLD REIL-OMNI
30 148 ft / 45 m 8,344 ft / 2,543 m 297.25° / 297.21° ASPHALT 1,378 ft / 420 m 0 ft / 0 m PREC-APP EDGE THRESHOLD REIL-OMNI

LFQQ

Details ICAO LFQQ (LIL)
Name Lille Lesquin
Region France
Timezone Europe/Paris (UTC+1.0)
Stats Elevation 154 ft / 47 m (AMSL)
Location 50.566300° 3.095390°
Runways 2
Magnetic Variation 0.880° E

METAR

LFQQ 250500Z AUTO 30010KT 9999 FEW027 BKN058 06/04 Q1025 NOSIG

Decode

TAF

TAF AMD LFQQ 250346Z 2503/2606 27010KT CAVOK BECMG 2507/2509 36015KT TEMPO 2510/2517 36015G25KT PROB30 TEMPO 2521/2603 BKN013

Decode

Destination Runways

ID Width Length Bearing (true/mag) Surface Threshold Overrun Markings Lighting
02 98 ft / 30 m 5,172 ft / 1,576 m 14.83° / 13.95° ASPHALT 0 ft / 0 m 0 ft / 0 m APP EDGE THRESHOLD
08 146 ft / 45 m 9,250 ft / 2,819 m 77.36° / 76.48° ASPHALT 0 ft / 0 m 0 ft / 0 m PREC-APP CENTERLINE EDGE THRESHOLD CALVERT-ILS REIL-OMNI
20 98 ft / 30 m 5,172 ft / 1,576 m 194.84° / 193.95° ASPHALT 0 ft / 0 m 0 ft / 0 m APP EDGE THRESHOLD
26 146 ft / 45 m 9,250 ft / 2,819 m 257.39° / 256.51° ASPHALT 919 ft / 280 m 0 ft / 0 m PREC-APP CENTERLINE EDGE THRESHOLD CALVERT-ILS TDZ

Approach Navaids

Runway Type Ident Frequency Range Bearing (true/mag) Slope Elevation
08 LOC-ILS LL 110.10 MHz 18 nm / 33 km 77.13° / 76.25 ° - 135 ft / 41 m (AMSL)
26 GS LIL 110.75 MHz 15 nm / 28 km 257.00° / 256.12 ° 3.00° 129 ft / 39 m (AMSL)
26 LOC-ILS LIL 110.75 MHz 18 nm / 33 km 257.13° / 256.25 ° - 157 ft / 48 m (AMSL)

Popular Alternatives